Location: Ohmer (historical)
(38.0096°N, 122.0227°W)
Time: 11:54:12
(UTC+00:00)

Meteor 1-11 - Pass Details

Date: 14 February 2026
Orbit: 828 x 896 km, 81.2° (Epoch: 17 March)

Event Time Altitude Azimuth Distance (km) Brightness Sun altitude
Rises 12:54:28 0° 350° (N) 3,512 7.4 -25.1°
Reaches altitude 10° 12:56:55 10° 350° (N) 2,572 6.6 -24.6°
Maximum altitude 13:02:49 87° 262° (W) 902 4.2 -23.5°
Drops below altitude 10° 13:08:39 10° 174° (S) 2,552 6.7 -22.3°
Sets 13:11:05 0° 174° (S) 3,483 7.5 -21.8°
